Résultats

Cross Marseille Méditerranée:C10:PoF. Édition 2012.

1 Km
16/12/2012 à 00:00:00 - ()
82 arrivant(e)s.


 
Les autres classements de cet évènement




Place▲ Temps Dossard Nom Prenom Categ #Categ Sexe #Sexe ClubVit Moy Diplôme Partager
1 00:05:24 1186 HAUDICOT MAELYS POF 1 F 1 PENITENTS EN DURANCE17.78
2 00:05:25 459 BEDIOUNE KHETRA POF 2 F 2 ALES CEVENE ATHLE17.72
3 00:05:25 561 SILVESTRE LUCIE POF 3 F 3 AMICALE DES PENNES MIRABEAU17.72
4 00:05:40 2533 RAHAL CLEO POF 4 F 4 UAVH AUBAGNE16.94
5 00:05:41 540 KERZHERO MATHILDE POF 5 F 5 AMICALE DES PENNES MIRABEAU16.89
6 00:05:43 1827 BLAISE RAPHAELLE POF 6 F 6 STADE OLYMPIQUE ARLESIEN16.79
7 00:05:44 846 SACCOCCIO EMMA POF 7 F 7 MJC DE PLAN DE CUQUES16.74
8 00:05:46 559 SALINS MATHILDE POF 8 F 8 AMICALE DES PENNES MIRABEAU16.65
9 00:05:48 485 NANCLARES MYRIAM POF 9 F 9 ALES CEVENE ATHLE16.55
10 00:05:51 151 SOUSIRI LINDA POF 10 F 10 AC MIRAMAS16.41
11 00:05:54 467 BRILLEAU INES POF 11 F 11 ALES CEVENE ATHLE16.27
12 00:05:57 390 COHEN CHARLOTTE POF 12 F 12 AIX ATHLE PROVENCE16.13
13 00:05:58 1128 RIAHI SAWSEN POF 13 F 13 OM ATHLE9.90
14 00:06:00 1293 FIGOS RISIANA POF 14 F 14 S/L STADE MARSEILLAIS U. C.16.00
15 00:06:01 1718 NOUFIR AICHA POF 15 F 15 SCO STE MARGUERITE MARSEILLE15.96
16 00:06:04 330 CASTAING MAYLIS POF 16 F 16 ACS/PELICAN ATHLETISME15.82
17 00:06:06 553 ORIO EMELINE POF 17 F 17 AMICALE DES PENNES MIRABEAU15.74
18 00:06:07 824 KEBAILI OCEANE POF 18 F 18 MJC DE PLAN DE CUQUES15.69
19 00:06:08 403 FAIRFORT GWENDOLINE POF 19 F 19 AIX ATHLE PROVENCE15.65
20 00:06:10 545 MARICHEZ CHLOE POF 20 F 20 AMICALE DES PENNES MIRABEAU15.57
21 00:06:13 1848 LUPPI EMMA POF 21 F 21 STADE OLYMPIQUE ARLESIEN15.44
22 00:06:17 1985 JAMMOT LINA POF 22 F 22 UAVH AUBAGNE15.28
23 00:06:20 2846 BOSTELLE AMELINE BEF 1 F 23 ACP MARSEILLE15.16
24 00:06:23 1086 MAURIN ELISA POF 23 F 24 OM ATHLE9.90
25 00:06:24 1182 ZERBINI ARMELLE POF 24 F 25 OM ATHLE15.00
26 00:06:25 1398 PIMPAO LAURINE POF 25 F 26 S/L STADE MARSEILLAIS U. C.14.96
27 00:06:27 1090 MERCIER CARLA POF 26 F 27 OM ATHLE14.88
28 00:06:29 867 SIROT CLARA POF 27 F 28 OCC CABRIES CALAS14.81
29 00:06:31 608 BRIK MALIKA POF 28 F 29 ATHLETIC JEUNES BASTIA14.73
30 00:06:32 1849 LUPPI LAURINE POF 29 F 30 STADE OLYMPIQUE ARLESIEN14.69
31 00:06:32 228 MARCEAU-MARY GARANCE POF 30 F 31 AC SALON14.69
32 00:06:33 1539 BORDERIE PAULINE POF 31 F 32 SCO STE MARGUERITE MARSEILLE14.66
33 00:06:33 1838 DURAND LEILA POF 32 F 33 STADE OLYMPIQUE ARLESIEN14.66
34 00:06:34 810 CHEDIAC ELODIE POF 33 F 34 MJC DE PLAN DE CUQUES14.62
35 00:06:34 798 ALLIES THEANA POF 34 F 35 MJC DE PLAN DE CUQUES14.62
36 00:06:35 799 ANSAS CORALIE POF 35 F 36 MJC DE PLAN DE CUQUES14.58
37 00:06:35 118 GAUTIER SCHALINE POF 36 F 37 AC MIRAMAS14.58
38 00:06:36 2887 LA-ROCCA NATACHA POF 37 F 38 BANDOL SANARY SAINT-CYR ATHLET14.55
39 00:06:37 618 EL-YAAGOUBI HAFSA POF 38 F 39 ATHLETIC JEUNES BASTIA14.51
40 00:06:39 218 LAMALAM INES POF 39 F 40 AC SALON14.44
41 00:06:41 2594 BAUMANN LISA POF 40 F 41 USC SEPTEMES14.36
42 00:06:42 1878 AIRAUDI CHLOE POF 41 F 42 UAVH AUBAGNE14.33
43 00:06:42 837 NAHUM ILONA POF 42 F 43 MJC DE PLAN DE CUQUES14.33
44 00:06:43 271 SORITA ERIA POF 43 F 44 AC SALON14.29
45 00:06:43 1288 ELKAN EMMA POF 44 F 45 S/L STADE MARSEILLAIS U. C.14.29
46 00:06:43 1629 GANACHON MARINE POF 45 F 46 SCO STE MARGUERITE MARSEILLE14.29
47 00:06:44 1399 PINI ARIANE POF 46 F 47 S/L STADE MARSEILLAIS U. C.14.26
48 00:06:45 863 PETILLOT ANOUCK POF 47 F 48 OCC CABRIES CALAS14.22
49 00:06:46 231 MARCOTTI CHARLOTTE POF 48 F 49 AC SALON14.19
50 00:06:48 1412 REMY CHARLOTTE POF 49 F 50 S/L STADE MARSEILLAIS U. C.9.90
51 00:06:51 1727 PENICA EUGENIE POF 50 F 51 SCO STE MARGUERITE MARSEILLE9.90
52 00:06:54 956 COPPET BARBARA POF 51 F 52 OM ATHLE13.91
53 00:06:55 1331 KEHR MARIE POF 52 F 53 S/L STADE MARSEILLAIS U. C.13.88
54 00:06:56 1392 PAULI SALOME POF 53 F 54 S/L STADE MARSEILLAIS U. C.13.85
55 00:06:56 1952 N:Anonyme 1952 P:Anonyme 1952 POF 54 F 55 UAVH AUBAGNE13.85
56 00:06:58 440 RECEVEUR EMMA POF 55 F 56 AIX ATHLE PROVENCE13.78
57 00:06:59 1345 LALOT EVA POF 56 F 57 S/L STADE MARSEILLAIS U. C.13.75
58 00:07:00 2601 DEL-PINO MARINE POF 57 F 58 USC SEPTEMES13.71
59 00:07:01 869 VERAN THALIE POF 58 F 59 OCC CABRIES CALAS13.68
60 00:07:05 286 AOURI LAURA EAF 1 F 60 ACP MARSEILLE13.55
61 00:07:07 2870 AUBERY MARIE-PAULINE POF 59 F 61 ACP MARSEILLE13.49
62 00:07:09 1754 ROGANI CYNTHIA POF 60 F 62 SCO STE MARGUERITE MARSEILLE13.43
63 00:07:10 1465 VURPILLOT ELISE POF 61 F 63 S/L STADE MARSEILLAIS U. C.13.40
64 00:07:11 1475 BOUCHET LOANA POF 62 F 64 SARDINES TRIATHLON13.36
65 00:07:12 2655 KHEMAISSIA AIDA POF 63 F 65 USPEG MARSEILLE13.33
66 00:07:13 239 MAZARI JULIE POF 64 F 66 AC SALON13.30
67 00:07:15 296 GRANZOTTO MARION EAF 2 F 67 ACP MARSEILLE13.24
68 00:07:24 1951 FAGES STEFFI POF 65 F 68 UAVH AUBAGNE9.90
69 00:07:25 110 CROUAU CHARLEEN POF 66 F 69 AC MIRAMAS9.90
70 00:07:41 188 DINTILHAC ELISA POF 67 F 70 AC SALON9.90
71 00:07:44 834 MASSE ALEXIANE POF 68 F 71 MJC DE PLAN DE CUQUES9.90
72 00:07:44 1294 FITAMANT-BRIGANDO CLARA POF 69 F 72 S/L STADE MARSEILLAIS U. C.9.90
73 00:07:52 594 BOUYKO MARION POF 70 F 73 ASPTT MARSEILLE9.90
74 00:08:00 2648 GASPARYAN DIANA POF 71 F 74 USPEG MARSEILLE9.90
75 00:08:01 199 FILLACIER LOUISE POF 72 F 75 AC SALON9.90
76 00:08:07 408 GUIFFARD BLANCHE POF 73 F 76 AIX ATHLE PROVENCE9.90
77 00:08:09 262 SCUEIL AUDREY POF 74 F 77 AC SALON9.90
78 00:08:14 2672 PIERLOT NINA POF 75 F 78 USPEG MARSEILLE9.90
79 00:08:34 1035 HANINI LINA POF 76 F 79 OM ATHLE9.90
80 00:08:52 1578 COMBAUD LORY POF 77 F 80 SCO STE MARGUERITE MARSEILLE9.90
81 00:09:44 809 CANTAILLOUBE JULIE POF 78 F 81 MJC DE PLAN DE CUQUES9.90
82 00:10:02 1832 CAPEAU MELANIE POF 79 F 82 STADE OLYMPIQUE ARLESIEN9.90